Regional Weather Roundup
Issued by NWS

Home | Current Version | Previous Version | Graphics & Text | Print | Product List | Glossary Off
Versions: 1 2 3 4 5 6 7 8 9 10 11 12 13 14 15 16 17 18 19 20 21 22 23 24 25 26 27 28 29 30 31 32 33 34 35 36 37 38 39 40 41 42 43 44 45 46 47 48 49 50

000
ASUS43 KDTX 131510
RWRMI
MICHIGAN HOURLY REGIONAL WEATHER ROUNDUP
NATIONAL WEATHER SERVICE DETROIT/PONTIAC MI
1000 AM EST SAT FEB 13 2016

NOTE: "FAIR" INDICATES FEW OR NO CLOUDS BELOW 12,000 FEET WITH NO
SIGNIFICANT WEATHER AND/OR OBSTRUCTION TO VISIBILITY.

MIZ047>049-052>055-059>063-066>070-074>076-081>083-131600-
SOUTHEAST LOWER MICHIGAN

CITY           SKY/WX    TMP DP  RH WIND       PRES   REMARKS
ADRIAN         MOSUNNY    8  -1  66 W7        30.45R WCI  -3
ALMA           PTSUNNY    8   4  81 CALM      30.42R
ANN ARBOR      SUNNY      8  -1  66 W9        30.42R WCI  -5
BAD AXE        SUNNY      0  -8  71 NW10      30.41R WCI -17
CARO           CLOUDY     0  -8  71 N3        30.42R
DETROIT CITY   SUNNY      7  -3  64 VRB7      30.43R WCI  -5
DETROIT        PTSUNNY    8  -1  66 NW7       30.45R WCI  -3
FLINT          CLOUDY     6  -4  63 CALM      30.42R
GROSSE ILE     PTSUNNY    9   0  66 W6        30.43S WCI  -1
HILLSDALE      CLOUDY     8   0  72 W9G17     30.41R WCI  -6
HOWELL         SUNNY      8   1  70 NW6       30.39S WCI  -2

CITY           SKY/WX    TMP DP  RH WIND       PRES   REMARKS
JACKSON        SUNNY      8  -1  66 W10       30.41R WCI  -6
LAMBERTVILLE   MOSUNNY    9  -1  63 W7        30.46S WCI  -2
LANSING        MOSUNNY   11   0  61 NW14G25   30.42R WCI  -5
LAPEER         CLOUDY     1  -6  75 N3        30.41R
MASON          SUNNY      9   0  67 W9        30.41R WCI  -4
MONROE         SUNNY      9  -1  62 W12       30.44S WCI  -6
MT. CLEMENS    MOSUNNY    4  -4  67 NW7       30.42R WCI  -8
PONTIAC        CLOUDY     3  -3  76 VRB3      30.38R
PORT HOPE        N/A      3  -4  72 NW20G29   30.38R WCI -18
PORT HURON     CLOUDY     3  -9  55 W8        30.42R WCI -10
TRI CITIES     PTSUNNY    2  -8  63 N6        30.44R WCI  -9
MIDLAND        CLOUDY     1 -10  59 CALM      30.44R
TROY           PTSUNNY    8  -1  66 W7        30.44R WCI  -3
SAGINAW HB     PTSUNNY    3  -4  72 NW5       30.44R WCI  -6
$$
MIZ043>046-050>051-056>058-064>065-071>073-077>080-131600-
SOUTHWEST LOWER MICHIGAN

CITY           SKY/WX    TMP DP  RH WIND       PRES   REMARKS
BATTLE CREEK   MOSUNNY    8   2  76 W8        30.44R WCI  -4
BENTON HARBOR  LGT SNOW  14   3  61 NW7G21    30.50S WCI   4
BIG RAPIDS     LGT SNOW  10   5  81 W6        30.39R WCI   0
COLDWATER      LGT SNOW   9   3  77 W8        30.45R WCI  -3
FREMONT        LGT SNOW  10   5  79 NW9       30.44R WCI  -3
HOLLAND        LGT SNOW  13   7  77 NW8       30.47R WCI   2
GRAND RAPIDS   PTSUNNY   12   3  67 NW15      30.44R WCI  -4
IONIA          FAIR      12   1  62 W12G22    30.42R WCI  -2
KALAMAZOO      CLOUDY     8   3  80 SW5       30.46R HAZE    WCI   0
LUDINGTON      LGT SNOW  10   2  72 NW8       30.46R WCI  -3
MARSHALL       MOSUNNY   10   3  72 W9        30.43S WCI  -3
MOUNT PLEASANT LGT SNOW   4  -3  71 CALM      30.41R
MUSKEGON       LGT SNOW  12   5  73 N12       30.47S VSB 1   WCI  -2
SOUTH HAVEN    LGT SNOW  14   5  67 NW12G23   30.49R WCI   0
$$
MIZ016>042-131600-
NORTHERN LOWER MICHIGAN

CITY           SKY/WX    TMP DP  RH WIND       PRES   REMARKS
ALPENA         PTSUNNY   -5 -12  72 VRB6      30.43R WCI -18
BEAVER ISLAND  CLOUDY     1  -5  76 E5        30.42S WCI  -9
BELLAIRE       MOSUNNY   -3 -10  69 CALM      30.45R
CADILLAC       LGT SNOW   0  -5  79 CALM      30.33R
CHARLEVOIX     SUNNY     -4 -13  65 SE9       30.45R WCI -20
FRANKFORT      CLOUDY    10   1  67 N10G21    30.43R WCI  -3
GAYLORD        MOSUNNY   -8 -12  83 CALM      30.34R
GRAYLING       PTSUNNY  -12 -18  74 CALM      30.38S
HARBOR SPRINGS MOSUNNY   -7 -15  68 E5        30.43R WCI -18
HOUGHTON LAKE  FLURRIES  -5 -12  72 E3        30.38R
MANISTEE       CLOUDY    10   0  61 NW15G23   30.43R WCI  -6
OSCODA         SUNNY     -3 -14  60 NW10      30.43R WCI -20
PELLSTON       SUNNY    -11 -17  75 CALM      30.43S
ROGERS CITY    LGT SNOW  -5 -12  73 W6        30.44R WCI -18
TRAVERSE CITY  LGT SNOW   1  -5  75 VRB6      30.42R WCI -10
$$
MIZ007>008-015-131600-
EASTERN UPPER MICHIGAN

CITY           SKY/WX    TMP DP  RH WIND       PRES   REMARKS
KINROSS        MOSUNNY   -6 -15  65 CALM      30.42R
MACKINAC ISLAN SUNNY     -4 -16  56 CALM      30.42R
NEWBERRY       LGT SNOW -11 -15  81 CALM      30.39S
S. S. MARIE    CLOUDY   -13 -22  64 S5        30.42R WCI -25
MUNISING         N/A      8   2  76 N17       30.41R WCI -10
$$
MIZ004>006-011>014-085-131600-
CENTRAL UPPER MICHIGAN

CITY           SKY/WX    TMP DP  RH WIND       PRES   REMARKS
MANISTIQUE     LGT SNOW   3  -3  77 W8        30.41R WCI -11
ESCANABA       SUNNY      3  -8  60 NW16G23   30.45S WCI -16
MENOMINEE      SUNNY      0  -8  71 NW9G16    30.50S WCI -16
SAWYER-GWINN   MOSUNNY    0  -6  78 NW13      30.38R WCI -18
$$
MIZ001>003-009>011-084-131600-
WESTERN UPPER MICHIGAN

CITY           SKY/WX    TMP DP  RH WIND       PRES   REMARKS
IRON MOUNTAIN  MOSUNNY   -4 -10  75 NW6       30.43S HAZE    WCI -16
HOUGHTON       LGT SNOW   1  -6  72 N15       30.43R WCI -18
COPPER HARBOR    N/A      5  -1  76 N23G30    30.45S WCI -17
IRONWOOD       CLOUDY    -4  -6  92 W13       30.48R WCI -23
$$

ABBREVIATIONS USED IN REMARKS
   TC - TEMPERATURE IN CELSIUS
  WCI - WIND CHILL INDEX
   HX - HEAT INDEX
  VSB - VISIBILITY




USA.gov is the U.S. government's official web portal to all federal, state and local government web resources and services.